Location: Gilley
(47.6906°N, 5.6365°E)
Time: 06:50:46
(UTC+00:00)

Daily predictions for brighter satellites

Satellite Brightness Start Highest point End
(mag) Time Altitude Azimuth Time Altitude Azimuth Time Altitude Azimuth
CSL-04 Debris 4.2 18:02:59 10° SSE 18:08:15 60° ENE 18:13:34 10° N
Cosmos 1939 Rocket 3.8 18:06:36 10° S 18:10:39 55° W 18:14:45 10° NNW
CZ-2D R/B 3.7 18:06:49 10° S 18:10:41 71° WSW 18:14:35 10° NNW
Sich 1 Rocket 4.3 18:07:20 10° SSE 18:11:19 32° E 18:15:22 10° NNE
Cosmos 1689 Rocket 4.2 18:10:44 10° N 18:13:28 32° WNW 18:16:10 10° SW
Meteor 1-21 4.2 18:07:52 10° N 18:13:29 66° ENE 18:19:02 10° SSE
MOS 1 Rocket 3.8 18:10:28 10° NNE 18:14:27 31° E 18:18:18 10° SSE
Cosmos 1603 3.8 18:09:32 10° NNW 18:15:15 83° WSW 18:20:52 10° SSE
Helios 1A Rocket 4.2 18:11:26 10° S 18:15:23 47° W 18:19:24 10° NNW
CSL-04 Rocket 3.7 18:11:19 10° SSE 18:16:42 67° ENE 18:22:10 10° N
SJ 16-02 2.3 18:14:43 10° SW 18:19:00 53° WNW 18:23:18 10° NNE
Cosmos 1937 Rocket 3.5 18:17:32 10° S 18:22:44 65° ESE 18:27:55 10° NNE
NOSS 8 (H) 4.0 18:20:08 10° SSW 18:23:18 72° SE 18:26:19 10° NE
Cosmos 1680 Rocket 4.5 18:18:53 10° NNW 18:23:57 51° WSW 18:29:00 10° S
Abrixas rocket 1.8 18:26:24 10° W 18:29:15 87° N 18:31:44 13° E
Okean 2 Rocket 3.8 18:25:52 10° SSE 18:29:52 32° E 18:33:51 10° NNE
Cosmos 1464 Rocket 4.3 18:25:47 10° SSE 18:31:30 43° E 18:37:16 10° NNE
NOSS 2-2 (E) 3.3 18:28:18 10° SSW 18:31:41 49° ESE 18:35:28 10° NE
SL-08 RB Rocket 4.2 18:28:16 10° SE 18:32:33 40° ENE 18:36:49 10° N
USA 116 3.4 18:31:36 10° NNE 18:35:03 86° ESE 18:38:51 10° SSW
Cosmos 1544 4.5 18:31:38 10° SSW 18:35:09 43° WNW 18:38:40 10° N
Okean 2 4.1 18:31:39 10° NNW 18:35:47 59° W 18:39:51 10° S
Okean-O 4.1 18:31:55 10° S 18:36:07 42° W 18:40:21 10° NNW
ATLAS 2AS CENTAUR R/B 4.3 18:34:07 10° SE 18:37:47 14° ESE 18:41:26 10° ENE
CZ-2C R/B 3.4 18:37:44 10° S 18:38:13 10° S 18:38:42 10° S
Cosmos 1300 Rocket 4.1 18:34:23 10° SSE 18:38:26 37° E 18:42:32 10° NNE
NOSS 2-2 (D) 3.3 18:37:00 10° SSW 18:40:22 46° ESE 18:44:04 10° NE
Iridium 4 Rocket 4.2 18:39:41 10° SSW 18:44:34 60° W 18:49:58 10° N
USA 102 3.3 18:39:20 10° SE 18:45:05 30° E 18:45:15 30° E
CENTAUR R/B 3.6 18:37:38 10° NW 18:45:08 48° NE 18:51:58 16° ESE
YAOGAN 1 3.8 18:41:19 10° S 18:45:27 45° W 18:49:38 10° NNW
Cosmos 1975 3.8 18:42:12 10° SSW 18:46:12 53° WNW 18:50:13 10° N
Cosmos 2082 Rocket 4.4 18:46:01 10° NNE 18:46:55 10° NNE 18:47:49 10° NE
H-2A R/B 2.1 18:44:35 10° SSE 18:49:32 80° WSW 18:54:39 10° NNW
Cosmos 1437 4.2 18:47:35 10° NNW 18:50:24 36° W 18:53:10 10° SSW
Cosmos 1674 3.9 18:47:38 10° NNE 18:50:52 25° ENE 18:52:10 21° ESE
CZ-4 R/B 3.4 18:47:06 10° SSW 18:50:55 32° W 18:54:43 10° NNW
ATLAS 3B R/B 4.0 18:46:09 10° NNW 18:51:44 26° NNE 18:56:56 12° ENE
Cosmos 1048 Rocket 4.3 18:48:59 10° NNW 18:54:08 48° ENE 18:58:02 17° SE
ISS -3.4 18:51:19 10° SW 18:54:32 43° SSE 18:56:08 24° E
Cosmos 1536 Rocket 3.9 18:51:12 10° N 18:55:29 45° ENE 18:58:59 15° SE
USA 238 DEB 4.0 18:49:40 10° NW 18:56:48 64° NE 19:02:30 18° ESE
USA 238 4.0 18:49:46 10° NW 18:56:54 63° NE 19:02:35 18° ESE
In-Cosmos 22 4.0 18:52:47 10° N 18:58:04 67° ENE 19:03:23 10° SSE
Cosmos 1891 Rocket 4.4 18:52:47 10° S 18:58:54 73° E 19:04:57 10° NNE
ARGOS 3.2 18:57:43 10° SSE 19:03:04 81° WSW 19:08:29 10° NNW
Cosmos 1025 Rocket 2.9 19:01:07 10° N 19:05:31 75° E 19:09:54 10° SSE
CZ-2C R/B 2.9 19:00:23 10° NNE 19:05:47 51° E 19:11:13 10° S
Cosmos 1707 3.0 19:04:56 10° NNW 19:08:46 68° W 19:12:33 10° S
Cosmos 2151 Rocket 3.6 19:06:50 10° S 19:11:12 60° E 19:15:38 10° NNE
KORONAS-FOTON 4.3 19:08:49 10° N 19:12:33 40° ENE 19:13:36 33° ESE
USA 186 1.8 19:13:02 19° S 19:15:07 79° WSW 19:18:23 10° NNW
CREW DRAGON DEMO-1 DEB 3.7 19:14:21 10° WNW 19:17:15 40° N 19:18:00 33° NE
Ariane Rocket 2.9 19:12:56 10° SSE 19:18:00 87° ENE 19:23:07 10° NNW
SJ-6B 2.5 19:16:15 24° SSE 19:18:23 77° ENE 19:22:09 10° N
Cosmos 1844 4.0 19:15:05 10° S 19:20:24 42° ESE 19:25:41 10° NE
FREGAT/IRIS 2.0 19:20:39 84° ENE 19:20:39 84° ENE 19:23:16 10° N
Cosmos 2263 Rocket 3.5 19:17:16 10° WSW 19:22:31 41° NW 19:27:48 10° NNE
Nadezhda 4 Rocket 3.9 19:16:54 10° N 19:23:03 81° E 19:29:11 10° S
Cosmos 494 Rocket 4.2 19:18:42 10° NNW 19:23:53 55° ENE 19:26:06 32° SE
NOSS 3-2 (A) 4.0 19:17:03 10° NW 19:24:33 88° NE 19:30:19 23° SE
NOSS 2-2 (C) 3.5 19:21:27 10° SW 19:24:56 64° NW 19:28:55 10° NE
MOS 1 4.3 19:21:25 12° SSE 19:26:42 89° ENE 19:32:27 10° NNW
Cosmos 2034 Rocket 4.0 19:22:39 10° S 19:29:01 82° E 19:35:24 10° N
Cosmos 1844 Rocket 2.6 19:23:36 10° S 19:29:03 60° ESE 19:34:34 10° NNE
Lacrosse 4 Rocket 3.8 19:29:12 10° NNE 19:29:36 10° NNE 19:29:59 10° NE
Cosmos 2298 Rocket 3.9 19:26:08 10° SSW 19:31:28 83° ESE 19:36:50 10° NNE
SPOT 3 Rocket 3.6 19:32:57 35° SE 19:34:58 59° ENE 19:40:03 10° N
Resurs 01 Rocket 1.8 19:42:54 49° E 19:43:15 51° ENE 19:47:35 10° N
USA 234 3.3 19:37:13 11° ENE 19:43:16 51° SE 19:49:37 10° SSW
SWAS 4.3 19:40:55 10° NNW 19:45:15 80° ENE 19:45:52 63° SE
Lacrosse 5 rocket 3.4 19:43:18 10° WNW 19:46:56 25° N 19:49:28 16° NE
MetOp-A 4.3 19:42:59 18° S 19:47:02 70° WSW 19:52:25 10° NNW
Cosmos 1833 Rocket 3.6 19:45:37 10° NNW 19:50:37 31° NE 19:51:25 30° ENE
OBJECT-B 1.2 19:52:33 61° WNW 19:52:33 61° WNW 19:55:27 10° NNW
Meteor 1-15 Rocket 4.2 19:47:52 10° S 19:53:29 87° W 19:59:15 10° N
Cosmos 1626 3.1 19:53:35 10° N 19:56:02 36° NNE 19:56:02 36° NNE
NOSS 3-2 (C) 4.0 19:51:52 10° NW 19:59:22 88° SW 20:03:03 38° SE
DMSP B5D2-2 4.3 19:54:10 10° N 19:59:27 70° WNW 20:04:42 10° SSW
ARIANE 5 R/B 3.3 20:01:02 40° NE 20:01:02 40° NE 20:04:24 10° N
Cosmos 2150 Rocket 4.5 19:55:55 10° SW 20:01:14 63° WNW 20:06:41 10° NNE
Cosmos 1634 Rocket 3.9 19:59:03 36° SSE 20:01:37 67° E 20:07:47 10° NNE
Abrixas rocket 4.3 20:01:45 10° W 20:03:00 23° WNW 20:03:00 23° WNW
BREEZE-M TANK 2.9 19:57:38 10° WSW 20:04:37 60° S 20:04:37 60° S
Landsat 7 4.4 20:09:07 44° NE 20:09:07 44° NE 20:13:01 10° N
Cosmos 2285 Rocket 3.9 20:02:39 10° SSW 20:08:58 87° ESE 20:15:22 10° NNE
Cosmos 1125 Rocket 3.6 20:03:43 10° SSW 20:09:01 78° WNW 20:14:24 10° NNE
Okean 1 Rocket 3.2 20:08:19 51° SSW 20:09:22 74° WNW 20:13:53 10° N
ERS-1 Rocket 4.2 20:17:26 29° NE 20:17:26 29° NE 20:20:47 10° N
Resurs 1-3 4.4 20:18:55 42° SW 20:19:42 47° W 20:23:58 10° NNW
Cosmos 1092 Rocket 4.4 20:16:28 10° NNW 20:22:31 60° W 20:25:37 29° SSW
Meteor 2-19 Rocket 4.5 20:16:37 10° N 20:22:38 58° ENE 20:22:38 58° ENE
Meteor 2-5 Rocket 4.0 20:18:12 10° NNW 20:23:46 64° W 20:25:27 44° SSW
Cosmos 1805 4.3 20:24:12 44° WNW 20:24:12 44° WNW 20:27:53 10° N
ATLAS 2AS CENTAUR R/B 2.9 20:19:33 10° SSW 20:27:19 61° ESE 20:35:03 10° NE
Cosmos 2026 Rocket 4.2 20:22:26 10° NNW 20:28:47 71° W 20:30:53 44° SSW
Cosmos 2098 Rocket 4.3 20:23:05 10° N 20:30:00 54° ENE 20:30:00 54° ENE
ISS -1.1 20:28:01 10° W 20:29:07 19° W 20:29:07 19° W
Cosmos 2082 Rocket 3.1 20:27:36 10° NNW 20:32:16 36° NE 20:32:16 36° NE
Meteor 1-22 Rocket 4.3 20:34:26 56° SSW 20:35:43 79° WNW 20:41:48 10° N
CENTAUR R/B 3.4 20:28:21 10° NW 20:36:22 65° WSW 20:39:10 45° S
CZ-2C R/B 4.4 20:34:41 10° N 20:38:59 51° WNW 20:38:59 51° WNW
SPOT 1/Viking Rocket 3.9 20:43:21 58° N 20:43:21 58° N 20:47:33 10° NNW
COSMOS 2406 3.2 20:37:54 10° NNW 20:43:10 77° NNW 20:43:10 77° NNW
ATLAS 3B R/B 2.7 20:36:51 10° NW 20:43:41 67° NE 20:44:10 65° ENE
Cosmos 2279 Rocket 3.8 20:44:35 87° ESE 20:44:36 87° E 20:50:55 10° N
Meteor 1-24 Rocket 4.2 20:41:09 10° NNW 20:46:30 54° W 20:47:08 51° WSW
Spot 2 Rocket 4.0 20:51:06 57° NNW 20:51:06 57° NNW 20:55:08 10° NNW
Terra 3.5 21:02:36 26° N 21:02:36 26° N 21:04:50 10° N
Cosmos 2278 Rocket 4.2 21:07:57 18° NNE 21:07:57 18° NNE 21:09:17 10° NNE
Lacrosse 4 Rocket 3.8 21:05:19 10° NNW 21:06:37 19° NNW 21:06:37 19° NNW
Cosmos 909 Rocket 4.3 21:03:40 10° NNW 21:09:31 62° NNE 21:09:31 62° NNE
Resurs 01 Rocket 4.0 21:20:28 19° W 21:20:28 19° W 21:23:14 10° NW
USA 234 3.5 21:24:44 49° NNE 21:26:26 65° NNW 21:32:53 10° WSW
SPOT 5 4.3 21:28:43 37° NNW 21:28:43 37° NNW 21:31:56 10° NNW
Lacrosse 5 rocket 3.9 21:23:06 10° NW 21:25:05 22° NNW 21:25:05 22° NNW
Cosmos 1833 Rocket 3.9 21:29:20 10° NW 21:33:07 39° WNW 21:33:07 39° WNW
Cosmos 2082 Rocket 4.1 22:11:41 10° NW 22:14:06 24° NW 22:14:06 24° NW
ATLAS 2AS CENTAUR R/B 3.8 22:11:01 10° WSW 22:18:39 47° NW 22:26:10 10° NE
ATLAS 3B R/B 4.3 22:28:00 10° NW 22:31:25 25° WNW 22:31:25 25° WNW
Cosmos 2278 Rocket 4.3 22:49:46 23° NNW 22:49:46 23° NNW 22:52:55 10° N
CZ-4C R/B 4.3 23:34:17 24° NNE 23:34:17 24° NNE 23:37:16 10° NE
